sat.trackr.live / text

‹ back to catalog

STARLINK-31861

NORAD 59906 · 2024-100X

PAYLOAD ACTIVE UNKNOWN

§ Identity

Operator
Country
US
Launch date
2024-05-28
Launch site
AFETR
Launch vehicle
Mass (kg)
RCS (m²)

Purposes: comms

External: N2YO · Heavens-Above · Gunter

§ Orbital elements

Epoch: 2026-05-25T02:10:32.068416Z

Period
94.27 min
Inclination
43.0046°
Eccentricity
0.0001362
Mean motion
15.27583709 rev/d
Perigee alt
482.1 km
Apogee alt
484.0 km
Semi-major
6,861.2 km
B*
-3.2843e-6
RAAN
46.7828°
Arg perigee
284.6723°
Mean anomaly
75.3978°
Rev number
11,291

§ Raw data

STARLINK-318611 59906U 24100X   26145.09064894 -.00000353  00000+0 -32843-5 0  99912 59906  43.0046  46.7828 0001362 284.6723  75.3978 15.27583709112917

JSON: /api/v1/satellites/59906 · /tle

For live sub-satellite position, see the globe view (requires WebGL).

§ Visibility from observer

Set your observer location to see the next 7 days of passes ≥ 10°. The values pass through the URL so the page stays shareable.

No JS? Fill the form by hand. The geolocation button needs JavaScript.